BAW4CD EICK-EGJJ

Flight info

Callsign BAW4CD
Flight time 0h 50m
Altitude 23000
Route ERTER1N ERTER DCT LEDGO N160 EVCOR/N0458F350 DCT NAKID DCT LIZAD/N0395F190 N160 TUNIT
Aircraft A319/M-SDE3FGHIRWY/LB1

Departure

Time 2026-05-04 11:01
Airport Cork International Airport (EICK)

Arrival

Time 2026-05-04 11:52
Airport Jersey Airport (EGJJ)
Time Latitude Longitude Altitude Speed Heading
2026-05-04 10:49 51.84846 -8.49055 512 ft 0 kts 70°
2026-05-04 10:54 51.84856 -8.49158 508 ft 0 kts 166°
2026-05-04 10:56 51.84855 -8.49157 508 ft 0 kts 166°
2026-05-04 10:56 51.84842 -8.49153 508 ft 2 kts 181°
2026-05-04 10:56 51.84804 -8.49161 506 ft 8 kts 188°
2026-05-04 10:57 51.84732 -8.49166 503 ft 12 kts 173°
2026-05-04 10:57 51.84638 -8.49128 501 ft 15 kts 160°
2026-05-04 10:57 51.84528 -8.49062 497 ft 18 kts 159°
2026-05-04 10:57 51.84403 -8.48988 494 ft 20 kts 172°
2026-05-04 10:58 51.84300 -8.49138 486 ft 22 kts 230°
2026-05-04 10:58 51.84159 -8.49128 481 ft 22 kts 160°
2026-05-04 10:58 51.84007 -8.49033 475 ft 24 kts 158°
2026-05-04 10:58 51.83846 -8.48943 472 ft 24 kts 161°
2026-05-04 10:59 51.83682 -8.48844 468 ft 25 kts 159°
2026-05-04 10:59 51.83520 -8.48746 468 ft 24 kts 160°
2026-05-04 10:59 51.83364 -8.48650 468 ft 22 kts 160°
2026-05-04 10:59 51.83258 -8.48548 467 ft 13 kts 218°
2026-05-04 11:00 51.83290 -8.48612 467 ft 4 kts 336°
2026-05-04 11:01 51.87840 -8.51148 2639 ft 155 kts 353°
2026-05-04 11:02 51.88906 -8.50864 2982 ft 165 kts 32°
2026-05-04 11:02 51.89703 -8.49472 3362 ft 181 kts 62°
2026-05-04 11:05 51.77024 -8.13540 12021 ft 352 kts 131°
2026-05-04 11:06 51.75310 -8.10655 12542 ft 362 kts 131°
2026-05-04 11:06 51.73569 -8.07710 13201 ft 367 kts 132°
2026-05-04 11:06 51.71522 -8.05242 13851 ft 378 kts 152°
2026-05-04 11:06 51.68932 -8.04278 14586 ft 387 kts 177°
2026-05-04 11:08 51.51442 -7.98913 18984 ft 388 kts 131°
2026-05-04 11:10 51.37471 -7.77282 22714 ft 410 kts 131°
2026-05-04 11:12 51.22768 -7.54948 25886 ft 427 kts 130°
2026-05-04 11:12 51.20633 -7.51722 26281 ft 429 kts 130°
2026-05-04 11:12 51.18441 -7.48418 26693 ft 431 kts 130°
2026-05-04 11:12 51.16290 -7.45177 27077 ft 433 kts 130°
2026-05-04 11:13 51.14093 -7.41873 27458 ft 435 kts 130°
2026-05-04 11:13 51.11879 -7.38544 27830 ft 437 kts 130°
2026-05-04 11:13 51.09694 -7.35266 28204 ft 439 kts 130°
2026-05-04 11:13 51.07470 -7.31936 28574 ft 440 kts 131°
2026-05-04 11:14 51.05254 -7.28619 29000 ft 440 kts 131°
2026-05-04 11:14 51.03043 -7.25317 29483 ft 438 kts 131°
2026-05-04 11:14 51.00825 -7.22010 29951 ft 437 kts 130°
2026-05-04 11:16 50.87059 -6.97235 32338 ft 429 kts 122°
2026-05-04 11:16 50.85287 -6.93469 32651 ft 429 kts 122°
2026-05-04 11:16 50.83522 -6.89727 32956 ft 429 kts 122°
2026-05-04 11:17 50.81735 -6.85942 33232 ft 430 kts 123°
2026-05-04 11:17 50.79950 -6.82161 33478 ft 431 kts 123°
2026-05-04 11:19 50.67277 -6.55501 34931 ft 441 kts 124°
2026-05-04 11:19 50.65436 -6.51650 34989 ft 442 kts 124°
2026-05-04 11:19 50.61740 -6.43945 34996 ft 443 kts 124°
2026-05-04 11:20 50.58049 -6.36263 34995 ft 443 kts 124°
2026-05-04 11:20 50.54333 -6.28554 34986 ft 443 kts 125°
2026-05-04 11:22 50.39447 -5.97889 34990 ft 444 kts 126°
2026-05-04 11:23 50.35701 -5.90232 35000 ft 444 kts 126°
2026-05-04 11:25 50.22597 -5.63608 34987 ft 442 kts 126°
2026-05-04 11:25 50.18860 -5.56066 34991 ft 442 kts 126°
2026-05-04 11:27 50.01940 -5.22182 34987 ft 443 kts 127°
2026-05-04 11:28 49.98146 -5.14640 34990 ft 442 kts 127°
2026-05-04 11:28 49.94392 -5.07207 34990 ft 441 kts 127°
2026-05-04 11:29 49.90598 -4.99712 34779 ft 440 kts 128°
2026-05-04 11:29 49.88720 -4.96005 34507 ft 438 kts 128°
2026-05-04 11:29 49.86858 -4.92340 34069 ft 436 kts 128°
2026-05-04 11:31 49.73581 -4.66340 29092 ft 449 kts 130°
2026-05-04 11:33 49.61811 -4.39510 24924 ft 414 kts 126°
2026-05-04 11:33 49.60321 -4.35752 24373 ft 411 kts 121°
2026-05-04 11:33 49.59114 -4.31766 23832 ft 409 kts 115°
2026-05-04 11:34 49.58228 -4.27682 23306 ft 408 kts 109°
2026-05-04 11:34 49.57554 -4.23482 22757 ft 405 kts 107°
2026-05-04 11:34 49.56918 -4.19280 22201 ft 402 kts 107°
2026-05-04 11:34 49.56294 -4.15118 21666 ft 399 kts 107°
2026-05-04 11:35 49.55668 -4.10964 21152 ft 395 kts 106°
2026-05-04 11:35 49.55053 -4.06908 20660 ft 392 kts 107°
2026-05-04 11:35 49.54432 -4.02839 20163 ft 389 kts 107°
2026-05-04 11:35 49.53813 -3.98802 19645 ft 387 kts 107°
2026-05-04 11:36 49.53198 -3.94807 19117 ft 385 kts 106°
2026-05-04 11:36 49.52584 -3.90834 18603 ft 383 kts 106°
2026-05-04 11:36 49.51978 -3.86920 18088 ft 381 kts 106°
2026-05-04 11:36 49.51360 -3.82946 17570 ft 379 kts 106°
2026-05-04 11:37 49.50754 -3.79052 17062 ft 377 kts 106°
2026-05-04 11:37 49.50147 -3.75162 16563 ft 375 kts 106°
2026-05-04 11:37 49.49540 -3.71277 16070 ft 373 kts 105°
2026-05-04 11:37 49.48938 -3.67429 15580 ft 371 kts 105°
2026-05-04 11:38 49.48338 -3.63609 15084 ft 368 kts 105°
2026-05-04 11:38 49.47742 -3.59827 14593 ft 366 kts 105°
2026-05-04 11:38 49.47142 -3.56021 14095 ft 364 kts 105°
2026-05-04 11:38 49.46547 -3.52257 13606 ft 362 kts 105°
2026-05-04 11:39 49.45955 -3.48533 13108 ft 360 kts 105°
2026-05-04 11:39 49.45370 -3.44857 12593 ft 359 kts 105°
2026-05-04 11:40 49.41904 -3.23203 10389 ft 325 kts 105°
2026-05-04 11:41 49.41373 -3.19905 10229 ft 314 kts 105°
2026-05-04 11:41 49.40853 -3.16684 10079 ft 304 kts 105°
2026-05-04 11:41 49.40353 -3.13597 9872 ft 297 kts 105°
2026-05-04 11:41 49.39860 -3.10560 9597 ft 293 kts 105°
2026-05-04 11:42 49.39368 -3.07537 9320 ft 289 kts 105°
2026-05-04 11:42 49.38890 -3.04604 9057 ft 285 kts 105°
2026-05-04 11:42 49.38393 -3.01673 8795 ft 280 kts 108°
2026-05-04 11:42 49.37735 -2.98893 8527 ft 275 kts 114°
2026-05-04 11:43 49.36914 -2.96276 8262 ft 272 kts 117°
2026-05-04 11:43 49.36057 -2.93705 7937 ft 271 kts 117°
2026-05-04 11:43 49.35203 -2.91160 7588 ft 270 kts 117°
2026-05-04 11:43 49.34349 -2.88614 7275 ft 269 kts 117°
2026-05-04 11:44 49.33494 -2.86058 6970 ft 268 kts 117°
2026-05-04 11:44 49.32656 -2.83555 6649 ft 267 kts 117°
2026-05-04 11:44 49.31806 -2.81017 6300 ft 266 kts 117°
2026-05-04 11:44 49.30972 -2.78526 6007 ft 264 kts 117°
2026-05-04 11:45 49.30135 -2.76026 5754 ft 260 kts 117°
2026-05-04 11:45 49.29326 -2.73616 5523 ft 256 kts 117°
2026-05-04 11:45 49.28515 -2.71202 5298 ft 252 kts 117°
2026-05-04 11:45 49.27716 -2.68824 5071 ft 248 kts 116°
2026-05-04 11:46 49.26936 -2.66505 4852 ft 244 kts 116°
2026-05-04 11:46 49.26164 -2.64214 4637 ft 241 kts 116°
2026-05-04 11:46 49.25405 -2.61961 4452 ft 235 kts 116°
2026-05-04 11:46 49.24665 -2.59765 4265 ft 231 kts 116°
2026-05-04 11:47 49.23942 -2.57625 4095 ft 225 kts 116°
2026-05-04 11:47 49.23230 -2.55515 3929 ft 220 kts 115°
2026-05-04 11:47 49.22540 -2.53461 3726 ft 214 kts 115°
2026-05-04 11:47 49.21873 -2.51482 3434 ft 209 kts 115°
2026-05-04 11:48 49.21217 -2.49535 3252 ft 206 kts 115°
2026-05-04 11:48 49.20573 -2.47597 3076 ft 203 kts 115°
2026-05-04 11:48 49.19944 -2.45690 2899 ft 201 kts 115°
2026-05-04 11:48 49.19315 -2.43784 2721 ft 198 kts 115°
2026-05-04 11:49 49.18707 -2.41906 2543 ft 196 kts 110°
2026-05-04 11:49 49.18513 -2.39923 2362 ft 191 kts 85°
2026-05-04 11:49 49.18632 -2.37893 2196 ft 189 kts 83°
2026-05-04 11:49 49.18843 -2.35951 2033 ft 186 kts 77°
2026-05-04 11:50 49.19124 -2.34067 1997 ft 175 kts 76°
2026-05-04 11:50 49.19390 -2.32348 1972 ft 162 kts 75°
2026-05-04 11:50 49.19649 -2.30690 1757 ft 160 kts 76°
2026-05-04 11:50 49.19862 -2.29025 1539 ft 157 kts 81°
2026-05-04 11:51 49.19995 -2.27399 1311 ft 156 kts 82°
2026-05-04 11:51 49.20131 -2.25765 1082 ft 154 kts 78°
2026-05-04 11:51 49.20403 -2.24173 821 ft 149 kts 75°
2026-05-04 11:51 49.20575 -2.22664 608 ft 144 kts 84°
2026-05-04 11:52 49.20645 -2.21192 374 ft 134 kts 81°
2026-05-04 11:52 49.20769 -2.19838 268 ft 118 kts 82°
2026-05-04 11:52 49.20837 -2.19061 274 ft 31 kts 84°
2026-05-04 11:52 49.20861 -2.18730 271 ft 31 kts 83°
2026-05-04 11:53 49.20878 -2.18443 272 ft 25 kts 108°
2026-05-04 11:53 49.20748 -2.18434 272 ft 23 kts 235°
2026-05-04 11:53 49.20710 -2.18683 268 ft 24 kts 264°
2026-05-04 11:53 49.20693 -2.18933 268 ft 23 kts 263°